Starlink 2504

operational
NORAD ID: 48328 Int'l Des: 2021-036 Owner: SPXS Country: US Constellation: starlink
LEOCIRCULARSTARLINK_TYPE

Starlink 2504について

説明を読み込み中...

リアルタイム位置

3D地球を読み込み中...

次回通過

高度履歴

Altitude vs Time

uPlot chart will show altitude changes over time

軌道要素

1 48328U 21036BE 26034.58651488 .00000705 00000-0 66217-4 0 9995
2 48328 53.0550 254.7121 0001541 92.3078 267.8088 15.06397100262895
Epoch: Feb 3, 2026 • Age: 16 hours

現在のステータス

高度 552.1 km
速度 7.59 km/s
衛星直下点 -16.38°S, 16°E
打ち上げ日 Apr 29, 2021
運用期間 4.7 years
タイプ internet

技術仕様

分類 Payload
質量 260.00 kg
乾燥質量 248.00 kg
総質量 260.00 kg
長さ 0.20 m
直径 2.80 m
スパン 9.00 m
形状 Box + pan
製造者 SPXS
バスタイプ Starlink
フェーズステータス In Orbit
所有者/国 SPXS/US

大規模コンステレーション

Loading constellations...